Regional Weather Roundup
Issued by NWS Spokane, WA

Current Version | Previous Version | Text Only | Print | Product List | Glossary On
Versions: 1 2 3 4 5 6 7 8 9 10 11 12 13 14 15 16 17 18 19 20 21 22 23 24 25 26 27 28 29 30 31 32 33 34 35 36 37 38 39 40 41 42 43 44 45 46 47 48 49 50
000
NZUS01 KOTX 212325
RWROTX

Eastern Washington/Northern Idaho Roundup
National Weather Service, Spokane WA
300 PM PST WED FEB 21 2018

Note: "fair" indicated few or no clouds below 12,000 feet with no
significant weather and/or obstructions to visibility.

...Northeast Washington and Northern Idaho Panhandle...

CITY           SKY/WX    TMP DP  RH WIND       PRES   REMARKS
Spokane Intl   PTSUNNY   22   9  57 E6        30.16F WCI  14
Spokane Downto FAIR      24   6  46 SW7       30.20F WCI  16
Coeur d Alene  FAIR      24   9  52 W5        30.17F WCI  18
Deer Park      FAIR      20   8  60 MISG      30.18F
Sandpoint        N/A     23  10  58 SE8       30.17F WCI  14
Bonners Ferry  FAIR      21   9  58 CALM      30.14F

...Southeast Washington and southern Idaho Panhandle...

CITY           SKY/WX    TMP DP  RH WIND       PRES   REMARKS
Walla Walla    CLOUDY    30  18  60 S5        30.23F WCI  25
Pullman/Moscow PTSUNNY   23  18  81 S6        30.17F WCI  16
Lewiston       FAIR      32  16  51 CALM      30.20F
Lowell           N/A     32  17  54 S3        30.19F
Grangeville    FAIR      23  14  68 SE6       30.09S WCI  16

...Columbia Basin...

CITY           SKY/WX    TMP DP  RH WIND       PRES   REMARKS
Ephrata        PTSUNNY   28   7  41 S7        30.20F WCI  21
Moses Lake     CLOUDY    28  11  48 S9        30.22F WCI  19
Pasco          FAIR      33  13  43 S8        30.29F WCI  26
Richland       FAIR      34  17  49 S7        30.28F WCI  28
Hermiston      FAIR      31  17  56 S8        30.26F WCI  23
Pendleton      FAIR      27  18  69 SW3       30.21F

...East Slopes Cascades...

CITY           SKY/WX    TMP DP  RH WIND       PRES   REMARKS
The Dalles     FAIR      32  15  49 CALM      30.31F
Yakima         FAIR      32  16  51 VRB5      30.22F WCI  27
Ellensburg     CLOUDY    28  13  53 NW3       30.16F
Stampede Pass  LGT SNOW  19  16  88 VRB5      30.01F VSB 1   WCI  12
Wenatchee      CLOUDY    24  10  55 W5        30.20F WCI  18
Winthrop       FAIR      13   0  55 CALM      30.21F
Omak           CLOUDY    22  11  62 CALM      30.23F
Sunnyside      FAIR      29  12  47 SE8       30.26S WCI  21

...Southern British Columbia...

CITY           SKY/WX    TMP DP  RH WIND       PRES   REMARKS

...Western Montana...

CITY           SKY/WX    TMP DP  RH WIND       PRES   REMARKS
Kalispell      MOCLDY    18   9  68 S9        30.12F WCI   7
Missoula       PTSUNNY   17   5  59 CALM      30.11F

...Neighboring Cities...

CITY           SKY/WX    TMP DP  RH WIND       PRES   REMARKS
Seattle        CLOUDY    33  24  69 S10       30.25F WCI  25
Portland       PTSUNNY   36  26  67 W8        30.32R
Boise          CLOUDY    35  12  38 CALM      30.11F
Great Falls    FAIR      17   5  59 SW14      29.98R WCI   3



USA.gov is the U.S. government's official web portal to all federal, state and local government web resources and services.